Orbital Elements at Epoch 2459200.5 (2020-Dec-17.0) TDB
Reference: JPL 17 (heliocentric ecliptic J2000)
Element | Value | Uncertainty (1-sigma) | Units |
e | .2438094841343537 | 4.8148e-08 | |
a | 2.304955409737798 | 9.3037e-09 | au |
q | 1.742985420336938 | 1.1087e-07 | au |
i | 4.037292075718012 | 4.4662e-06 | deg |
node | 344.6107494448166 | 6.8709e-05 | deg |
peri | 325.4589426797401 | 7.2144e-05 | deg |
M | 79.72165464206407 | 2.5786e-05 | deg |
tp | 2458917.448133908692 (2020-Mar-08.94813391) | 9.1551e-05 | TDB |
period | 1278.180592843658 3.50 | 7.7388e-06 2.119e-08 | d yr |
n | .2816503411298732 | 1.7053e-09 | deg/d |
Q | 2.866925399138659 | 1.1572e-08 | au |
|
| | Orbit Determination Parameters
Additional Information
|